Location: Broek
(53.2737°N, 5.9967°E)
Time: 21:07:12
(UTC+00:00)

USA 281 - Pass Details

Date: 10 October 2024
Orbit: 1078 x 1081 km, 106.0° (Epoch: 05 November)

Event Time Altitude Azimuth Distance (km) Brightness Sun altitude
Rises 18:19:05 0° 27° (NNE) 3,891 5.9 -14.0°
Reaches altitude 10° 18:21:39 10° 23° (NNE) 2,933 5.3 -14.4°
Maximum altitude 18:28:00 53° 309° (NW) 1,313 4.0 -15.4°
Drops below altitude 10° 18:34:19 10° 235° (SW) 2,920 6.1 -16.3°
Sets 18:36:53 0° 231° (SW) 3,873 6.7 -16.7°
